This is the latest recevied weather packets stored in our database for station/object WA6ODQ-13. If no packets are shown the sender has not sent any weather packets the latest 10 day(s).
| Time | Temp. | Humidity | Pressure | Rain* | Wind** | Luminosity | Snow |
|---|---|---|---|---|---|---|---|
| 1777936287 | 16.67° C | 72% | 1012.4 hPa | 0 mm | - | 69 W/m² | - |
| 1777935983 | 16.67° C | 70% | 1012.4 hPa | 0 mm | - | 79 W/m² | - |
| 1777935682 | 16.67° C | 67% | 1012.8 hPa | 0 mm | - | 64 W/m² | - |
| 1777935380 | 17.22° C | 64% | 1012.4 hPa | 0 mm | - | 58 W/m² | - |
| 1777935076 | 17.22° C | 63% | 1012.7 hPa | 0 mm | - | 57 W/m² | - |
| 1777934773 | 17.22° C | 62% | 1012.6 hPa | 0 mm | - | 64 W/m² | - |
| 1777934470 | 17.22° C | 63% | 1012.8 hPa | 0 mm | - | 81 W/m² | - |
| 1777934167 | 17.22° C | 63% | 1012.6 hPa | 0 mm | - | 69 W/m² | - |
| 1777933862 | 17.22° C | 63% | 1012.8 hPa | 0 mm | - | 64 W/m² | - |
| 1777933559 | 17.22° C | 63% | 1012.8 hPa | 0 mm | - | 63 W/m² | - |
| 1777933256 | 17.22° C | 63% | 1012.9 hPa | 0 mm | - | 65 W/m² | - |
| 1777932954 | 17.78° C | 63% | 1012.8 hPa | 0 mm | - | 76 W/m² | - |
| 1777932650 | 17.78° C | 61% | 1012.8 hPa | 0 mm | - | 89 W/m² | - |
| 1777932347 | 17.22° C | 60% | 1013.1 hPa | 0 mm | - | 110 W/m² | - |
| 1777932044 | 17.78° C | 59% | 1013.2 hPa | 0 mm | - | 116 W/m² | - |
| 1777931740 | 17.78° C | 60% | 1013.1 hPa | 0 mm | - | 95 W/m² | - |
| 1777931438 | 17.78° C | 60% | 1013.2 hPa | 0 mm | - | 91 W/m² | - |
| 1777931134 | 17.78° C | 62% | 1013.4 hPa | 0 mm | - | 79 W/m² | - |
| 1777930830 | 17.78° C | 60% | 1013.4 hPa | 0 mm | - | 81 W/m² | - |
| 1777930527 | 17.78° C | 61% | 1013.3 hPa | 0 mm | - | 121 W/m² | - |
| 1777930224 | 18.33° C | 60% | 1013.3 hPa | 0 mm | - | 143 W/m² | - |
| 1777929920 | 18.33° C | 60% | 1013.2 hPa | 0 mm | - | 167 W/m² | - |
| 1777929617 | 18.33° C | 61% | 1013.1 hPa | 0 mm | - | 212 W/m² | - |
| 1777929314 | 17.78° C | 61% | 1013 hPa | 0 mm | - | 202 W/m² | - |
| 1777929012 | 17.78° C | 62% | 1013.1 hPa | 0 mm | - | 184 W/m² | - |
* Rain latest hour (hover to see other rain measurements)
** Current wind speed in m/s (hover to see current wind gust speed)